| time (UTC) | temp F | wind direction | speed MPH | gust MPH | rain 1hr in | rain 24hr in | rain mn in | humidity % | barometer mb |
| 20260502181600 | 71 | 276 | 1.0 | 5.0 | 0.00 | 0.00 | 0.00 | 67 | |
| 20260502181053 | 72 | 262 | 1.0 | 5.0 | 0.00 | 0.00 | 0.00 | 66 | |
| 20260502180547 | 72 | 269 | 0.0 | 5.0 | 0.00 | 0.00 | 0.00 | 65 | |
| 20260502170436 | 75 | 261 | 3.0 | 12.0 | 0.00 | 0.00 | 0.00 | 60 | |
| 20260502163905 | 75 | 259 | 3.0 | 14.0 | 0.00 | 0.00 | 0.00 | 60 | |
| 20260502163355 | 75 | 185 | 3.0 | 14.0 | 0.00 | 0.00 | 0.00 | 60 | |
| 20260502163124 | 75 | 220 | 3.0 | 16.0 | 0.00 | 0.00 | 0.00 | 61 | |
| 20260502162617 | 75 | 290 | 5.0 | 16.0 | 0.00 | 0.00 | 0.00 | 60 | |
| 20260502161841 | 75 | 217 | 3.0 | 13.0 | 0.00 | 0.00 | 0.00 | 60 | |
| 20260502161335 | 75 | 218 | 2.0 | 8.0 | 0.00 | 0.00 | 0.00 | 60 | |
| 20260502161100 | 75 | 213 | 3.0 | 8.0 | 0.00 | 0.00 | 0.00 | 60 | |
| 20260502160323 | 75 | 186 | 3.0 | 9.0 | 0.00 | 0.00 | 0.00 | 60 | |
| 20260502152236 | 75 | 256 | 4.0 | 15.0 | 0.00 | 0.00 | 0.00 | 60 | |
| 20260502151731 | 75 | 252 | 3.0 | 14.0 | 0.00 | 0.00 | 0.00 | 60 | |
| 20260502151223 | 74 | 292 | 4.0 | 20.0 | 0.00 | 0.00 | 0.00 | 60 | |
| 20260502150717 | 75 | 215 | 6.0 | 19.0 | 0.00 | 0.00 | 0.00 | 60 | |
| 20260502150713 | 74 | 292 | 5.0 | 20.0 | 0.00 | 0.00 | 0.00 | 60 | |
| 20260502130445 | 76 | 198 | 6.0 | 18.0 | 0.00 | 0.00 | 0.00 | 51 | |
| 20260502123412 | 77 | 202 | 6.0 | 22.0 | 0.00 | 0.00 | 0.00 | 50 | |
| 20260502123408 | 77 | 210 | 7.0 | 22.0 | 0.00 | 0.00 | 0.00 | 50 | |
| 20260502122400 | 77 | 227 | 8.0 | 22.0 | 0.00 | 0.00 | 0.00 | 49 | |
| 20260502121849 | 77 | 229 | 9.0 | 24.0 | 0.00 | 0.00 | 0.00 | 50 | |
| 20260502121348 | 77 | 198 | 7.0 | 24.0 | 0.00 | 0.00 | 0.00 | 50 | |
| 20260502121113 | 76 | 232 | 6.0 | 18.0 | 0.00 | 0.00 | 0.00 | 49 | |
| 20260502120333 | 77 | 182 | 7.0 | 17.0 | 0.00 | 0.00 | 0.00 | 46 | |
| 20260502115830 | 77 | 234 | 9.0 | 24.0 | 0.00 | 0.00 | 0.00 | 46 | |
| 20260502115328 | 77 | 232 | 7.0 | 24.0 | 0.00 | 0.00 | 0.00 | 46 | |
| 20260502114812 | 77 | 217 | 6.0 | 16.0 | 0.00 | 0.00 | 0.00 | 46 | |
| 20260502114310 | 78 | 261 | 7.0 | 21.0 | 0.00 | 0.00 | 0.00 | 45 | |
| 20260502114035 | 77 | 213 | 5.0 | 21.0 | 0.00 | 0.00 | 0.00 | 46 | |
| 20260502113253 | 77 | 194 | 7.0 | 17.0 | 0.00 | 0.00 | 0.00 | 45 | |
| 20260502112751 | 76 | 176 | 7.0 | 21.0 | 0.00 | 0.00 | 0.00 | 47 | |
| 20260502112244 | 76 | 202 | 6.0 | 21.0 | 0.00 | 0.00 | 0.00 | 46 | |
| 20260502111731 | 76 | 223 | 7.0 | 20.0 | 0.00 | 0.00 | 0.00 | 45 | |
| 20260502111230 | 76 | 170 | 5.0 | 17.0 | 0.00 | 0.00 | 0.00 | 46 | |
| 20260502110952 | 76 | 206 | 4.0 | 17.0 | 0.00 | 0.00 | 0.00 | 45 | |
| 20260502110445 | 76 | 229 | 7.0 | 20.0 | 0.00 | 0.00 | 0.00 | 46 | |
| 20260502105709 | 76 | 218 | 8.0 | 20.0 | 0.00 | 0.00 | 0.00 | 45 | |
| 20260502105206 | 76 | 143 | 8.0 | 22.0 | 0.00 | 0.00 | 0.00 | 45 | |
| 20260502104706 | 76 | 178 | 6.0 | 22.0 | 0.00 | 0.00 | 0.00 | 44 | |
| 20260502104204 | 75 | 198 | 6.0 | 19.0 | 0.00 | 0.00 | 0.00 | 42 | |
| 20260502103703 | 75 | 176 | 5.0 | 19.0 | 0.00 | 0.00 | 0.00 | 43 | |
| 20260502103442 | 75 | 194 | 3.0 | 13.0 | 0.00 | 0.00 | 0.00 | 46 | |
| 20260502102931 | 74 | 188 | 4.0 | 13.0 | 0.00 | 0.00 | 0.00 | 46 | |
| 20260502102201 | 74 | 128 | 4.0 | 13.0 | 0.00 | 0.00 | 0.00 | 45 | |
| 20260502101658 | 73 | 220 | 4.0 | 17.0 | 0.00 | 0.00 | 0.00 | 46 | |
| 20260502101157 | 73 | 199 | 6.0 | 17.0 | 0.00 | 0.00 | 0.00 | 46 | |
| 20260502100927 | 72 | 130 | 6.0 | 14.0 | 0.00 | 0.00 | 0.00 | 46 | |
| 20260502100427 | 72 | 182 | 5.0 | 13.0 | 0.00 | 0.00 | 0.00 | 48 | |
| 20260502091122 | 74 | 188 | 5.0 | 17.0 | 0.00 | 0.00 | 0.00 | 44 | |
| 20260502090615 | 73 | 181 | 4.0 | 17.0 | 0.00 | 0.00 | 0.00 | 47 | |
| 20260502090108 | 72 | 198 | 5.0 | 13.0 | 0.00 | 0.00 | 0.00 | 47 | |
| 20260502071511 | 65 | 167 | 8.0 | 17.0 | 0.00 | 0.00 | 0.00 | 55 | |
| 20260502071241 | 65 | 185 | 7.0 | 17.0 | 0.00 | 0.00 | 0.00 | 55 | |
| 20260502070514 | 65 | 192 | 4.0 | 17.0 | 0.00 | 0.00 | 0.00 | 57 | |
| 20260502070013 | 64 | 155 | 3.0 | 13.0 | 0.00 | 0.00 | 0.00 | 58 | |
| 20260502065507 | 63 | 190 | 5.0 | 18.0 | 0.00 | 0.00 | 0.00 | 59 | |
| 20260502064952 | 63 | 185 | 8.0 | 22.0 | 0.00 | 0.00 | 0.00 | 59 | |
| 20260502064446 | 62 | 158 | 7.0 | 22.0 | 0.00 | 0.00 | 0.00 | 60 | |
| 20260502063948 | 62 | 185 | 5.0 | 18.0 | 0.00 | 0.00 | 0.00 | 61 | |
| 20260502063446 | 62 | 176 | 5.0 | 14.0 | 0.00 | 0.00 | 0.00 | 62 | |
| 20260502062949 | 61 | 163 | 5.0 | 14.0 | 0.00 | 0.00 | 0.00 | 63 | |
| 20260502062450 | 60 | 211 | 3.0 | 12.0 | 0.00 | 0.00 | 0.00 | 63 | |
| 20260502061948 | 60 | 179 | 2.0 | 10.0 | 0.00 | 0.00 | 0.00 | 63 | |
| 20260502061446 | 59 | 154 | 1.0 | 8.0 | 0.00 | 0.00 | 0.00 | 64 | |
| 20260502060947 | 59 | 153 | 1.0 | 8.0 | 0.00 | 0.00 | 0.00 | 65 | |
| 20260502060447 | 58 | 147 | 1.0 | 6.0 | 0.00 | 0.00 | 0.00 | 65 | |
| 20260502055948 | 58 | 146 | 0.0 | 4.0 | 0.00 | 0.00 | 0.00 | 67 | |
| 20260502055447 | 57 | 146 | 1.0 | 7.0 | 0.00 | 0.00 | 0.00 | 66 | |
| 20260502055218 | 57 | 146 | 1.0 | 7.0 | 0.00 | 0.00 | 0.00 | 67 | |
| 20260502054447 | 56 | 141 | 1.0 | 6.0 | 0.00 | 0.00 | 0.00 | 67 | |
| 20260502054219 | 56 | 141 | 1.0 | 6.0 | 0.00 | 0.00 | 0.00 | 68 | |
| 20260502053435 | 56 | 141 | 1.0 | 6.0 | 0.00 | 0.00 | 0.00 | 68 | |
| 20260502052924 | 55 | 140 | 1.0 | 6.0 | 0.00 | 0.00 | 0.00 | 69 | |
| 20260502052411 | 54 | 140 | 1.0 | 6.0 | 0.00 | 0.00 | 0.00 | 70 | |
| 20260502051902 | 53 | 146 | 2.0 | 8.0 | 0.00 | 0.00 | 0.00 | 71 | |
| 20260502051401 | 53 | 140 | 1.0 | 8.0 | 0.00 | 0.00 | 0.00 | 72 | |
| 20260502050901 | 52 | 144 | 1.0 | 5.0 | 0.00 | 0.00 | 0.00 | 74 | |
| 20260502050401 | 51 | 144 | 1.0 | 5.0 | 0.00 | 0.00 | 0.00 | 76 | |
| 20260502045900 | 50 | 144 | 1.0 | 5.0 | 0.00 | 0.00 | 0.00 | 76 | |
| 20260502045631 | 50 | 144 | 1.0 | 6.0 | 0.00 | 0.00 | 0.00 | 76 | |
| 20260502044900 | 49 | 144 | 0.0 | 6.0 | 0.00 | 0.00 | 0.00 | 76 | |
| 20260502044401 | 49 | 144 | 0.0 | 5.0 | 0.00 | 0.00 | 0.00 | 76 | |
| 20260502043900 | 49 | 144 | 0.0 | 2.0 | 0.00 | 0.00 | 0.00 | 76 | |
| 20260502043355 | 49 | 144 | 0.0 | 4.0 | 0.00 | 0.00 | 0.00 | 76 | |
| 20260502043115 | 49 | 144 | 0.0 | 6.0 | 0.00 | 0.00 | 0.00 | 76 | |
| 20260502042612 | 49 | 144 | 0.0 | 6.0 | 0.00 | 0.00 | 0.00 | 76 | |
| 20260502041841 | 49 | 144 | 0.0 | 5.0 | 0.00 | 0.00 | 0.00 | 76 | |
| 20260502041612 | 49 | 144 | 0.0 | 5.0 | 0.00 | 0.00 | 0.00 | 76 | |
| 20260502040840 | 49 | 144 | 0.0 | 6.0 | 0.00 | 0.00 | 0.00 | 75 | |
| 20260502040341 | 49 | 143 | 0.0 | 6.0 | 0.00 | 0.00 | 0.00 | 75 | |
| 20260502035841 | 49 | 144 | 0.0 | 8.0 | 0.00 | 0.00 | 0.00 | 75 | |
| 20260502035341 | 49 | 144 | 0.0 | 8.0 | 0.00 | 0.00 | 0.00 | 74 | |
| 20260502034837 | 50 | 143 | 0.0 | 3.0 | 0.00 | 0.00 | 0.00 | 74 | |
| 20260502034335 | 50 | 143 | 1.0 | 7.0 | 0.00 | 0.00 | 0.00 | 74 | |
| 20260502033835 | 50 | 143 | 1.0 | 7.0 | 0.00 | 0.00 | 0.00 | 74 | |
| 20260502033335 | 50 | 143 | 0.0 | 4.0 | 0.00 | 0.00 | 0.00 | 73 | |
| 20260502032836 | 51 | 143 | 0.0 | 6.0 | 0.00 | 0.00 | 0.00 | 73 | |
| 20260502032333 | 51 | 143 | 0.0 | 6.0 | 0.00 | 0.00 | 0.00 | 72 | |
| 20260502031826 | 51 | 143 | 0.0 | 4.0 | 0.00 | 0.00 | 0.00 | 72 | |
| 20260502031317 | 51 | 143 | 0.0 | 4.0 | 0.00 | 0.00 | 0.00 | 72 | |
| 20260502030811 | 52 | 143 | 0.0 | 2.0 | 0.00 | 0.00 | 0.00 | 71 | |
| 20260502030544 | 52 | 143 | 1.0 | 7.0 | 0.00 | 0.00 | 0.00 | 71 | |
| 20260502025809 | 52 | 143 | 1.0 | 7.0 | 0.00 | 0.00 | 0.00 | 71 | |
| 20260502025308 | 52 | 142 | 1.0 | 6.0 | 0.00 | 0.00 | 0.00 | 71 | |
| 20260502024808 | 52 | 142 | 1.0 | 8.0 | 0.00 | 0.00 | 0.00 | 71 | |
| 20260502024307 | 52 | 142 | 2.0 | 8.0 | 0.00 | 0.00 | 0.00 | 71 | |
| 20260502023807 | 53 | 136 | 1.0 | 8.0 | 0.00 | 0.00 | 0.00 | 71 | |
| 20260502023538 | 53 | 124 | 1.0 | 8.0 | 0.00 | 0.00 | 0.00 | 71 | |
| 20260502023528 | 53 | 124 | 1.0 | 7.0 | 0.00 | 0.00 | 0.00 | 71 | |
| 20260502022307 | 53 | 124 | 1.0 | 7.0 | 0.00 | 0.00 | 0.00 | 71 | |
| 20260502021807 | 53 | 127 | 1.0 | 7.0 | 0.00 | 0.00 | 0.00 | 71 | |
| 20260502021308 | 53 | 128 | 1.0 | 7.0 | 0.00 | 0.00 | 0.00 | 71 | |
| 20260502021035 | 53 | 129 | 1.0 | 12.0 | 0.00 | 0.00 | 0.00 | 71 | |
| 20260502020303 | 53 | 128 | 1.0 | 12.0 | 0.00 | 0.00 | 0.00 | 70 | |
| 20260502015803 | 53 | 145 | 1.0 | 6.0 | 0.00 | 0.00 | 0.00 | 70 | |
| 20260502015301 | 53 | 145 | 0.0 | 6.0 | 0.00 | 0.00 | 0.00 | 70 | |
| 20260502014753 | 54 | 145 | 0.0 | 6.0 | 0.00 | 0.00 | 0.00 | 69 | |
| 20260502014514 | 54 | 145 | 1.0 | 7.0 | 0.00 | 0.00 | 0.00 | 69 | |
| 20260502013734 | 54 | 144 | 1.0 | 8.0 | 0.00 | 0.00 | 0.00 | 69 | |
| 20260502013231 | 54 | 119 | 1.0 | 8.0 | 0.00 | 0.00 | 0.00 | 70 | |
| 20260502012726 | 54 | 120 | 1.0 | 7.0 | 0.00 | 0.00 | 0.00 | 70 | |
| 20260502012218 | 54 | 119 | 1.0 | 7.0 | 0.00 | 0.00 | 0.00 | 69 | |
| 20260502011715 | 54 | 119 | 1.0 | 10.0 | 0.00 | 0.00 | 0.00 | 69 | |
| 20260502011203 | 54 | 119 | 1.0 | 10.0 | 0.00 | 0.00 | 0.00 | 70 | |
| 20260502010701 | 54 | 119 | 1.0 | 7.0 | 0.00 | 0.00 | 0.00 | 70 | |
| 20260502010205 | 54 | 119 | 1.0 | 4.0 | 0.00 | 0.00 | 0.00 | 70 | |
| 20260502005921 | 54 | 119 | 1.0 | 8.0 | 0.00 | 0.00 | 0.00 | 69 | |
| 20260502005143 | 54 | 119 | 1.0 | 8.0 | 0.00 | 0.00 | 0.00 | 70 | |
| 20260502004902 | 54 | 118 | 0.0 | 4.0 | 0.00 | 0.00 | 0.00 | 70 | |
| 20260502004130 | 54 | 115 | 1.0 | 8.0 | 0.00 | 0.00 | 0.00 | 69 | |
| 20260502003623 | 54 | 115 | 0.0 | 8.0 | 0.00 | 0.00 | 0.00 | 69 | |
| 20260502003116 | 54 | 114 | 0.0 | 7.0 | 0.00 | 0.00 | 0.00 | 69 | |
| 20260502002610 | 55 | 115 | 0.0 | 7.0 | 0.00 | 0.00 | 0.00 | 69 | |
| 20260502002102 | 55 | 104 | 1.0 | 8.0 | 0.00 | 0.00 | 0.00 | 70 | |
| 20260502001559 | 55 | 103 | 0.0 | 8.0 | 0.00 | 0.00 | 0.00 | 70 | |
| 20260502001323 | 54 | 103 | 1.0 | 9.0 | 0.00 | 0.00 | 0.00 | 70 | |
| 20260502000549 | 54 | 103 | 1.0 | 9.0 | 0.00 | 0.00 | 0.00 | 70 | |
| 20260502000040 | 54 | 100 | 0.0 | 6.0 | 0.00 | 0.00 | 0.00 | 70 | |
| 20260501235535 | 54 | 100 | 0.0 | 5.0 | 0.00 | 0.00 | 0.00 | 70 | |
| 20260501235029 | 55 | 100 | 0.0 | 5.0 | 0.00 | 0.00 | 0.00 | 70 | |
| 20260501234525 | 55 | 100 | 0.0 | 2.0 | 0.00 | 0.00 | 0.00 | 70 | |
| 20260501234017 | 55 | 100 | 0.0 | 2.0 | 0.00 | 0.00 | 0.00 | 69 | |
| 20260501233511 | 55 | 100 | 0.0 | 2.0 | 0.00 | 0.00 | 0.00 | 70 | |
| 20260501233000 | 55 | 100 | 0.0 | 2.0 | 0.00 | 0.00 | 0.00 | 70 | |
| 20260501232500 | 55 | 100 | 0.0 | 3.0 | 0.00 | 0.00 | 0.00 | 70 | |
| 20260501232226 | 55 | 100 | 0.0 | 3.0 | 0.00 | 0.00 | 0.00 | 70 | |
| 20260501231447 | 55 | 100 | 0.0 | 3.0 | 0.00 | 0.00 | 0.00 | 70 | |
| 20260501230941 | 55 | 100 | 0.0 | 1.0 | 0.00 | 0.00 | 0.00 | 69 | |
| 20260501230436 | 55 | 100 | 0.0 | 6.0 | 0.00 | 0.00 | 0.00 | 70 | |
| 20260501225930 | 55 | 100 | 0.0 | 6.0 | 0.00 | 0.00 | 0.00 | 69 | |
| 20260501225420 | 55 | 84 | 0.0 | 0.0 | 0.00 | 0.00 | 0.00 | 69 | |
| 20260501224917 | 55 | 84 | 0.0 | 0.0 | 0.00 | 0.00 | 0.00 | 69 | |
| 20260501224412 | 55 | 84 | 0.0 | 3.0 | 0.00 | 0.00 | 0.00 | 68 | |
| 20260501223906 | 55 | 84 | 0.0 | 3.0 | 0.00 | 0.00 | 0.00 | 68 | |
| 20260501223400 | 55 | 84 | 0.0 | 2.0 | 0.00 | 0.00 | 0.00 | 68 | |
| 20260501222853 | 55 | 84 | 0.0 | 2.0 | 0.00 | 0.00 | 0.00 | 68 | |
| 20260501222348 | 55 | 84 | 0.0 | 2.0 | 0.00 | 0.00 | 0.00 | 68 | |
| 20260501221839 | 56 | 84 | 0.0 | 2.0 | 0.00 | 0.00 | 0.00 | 68 | |
| 20260501221336 | 56 | 84 | 0.0 | 2.0 | 0.00 | 0.00 | 0.00 | 68 | |
| 20260501220829 | 56 | 84 | 0.0 | 2.0 | 0.00 | 0.00 | 0.00 | 67 | |
| 20260501220324 | 56 | 84 | 0.0 | 0.0 | 0.00 | 0.00 | 0.00 | 65 | |
| 20260501215817 | 57 | 84 | 0.0 | 0.0 | 0.00 | 0.00 | 0.00 | 64 | |
| 20260501215308 | 57 | 84 | 0.0 | 0.0 | 0.00 | 0.00 | 0.00 | 64 | |
| 20260501214806 | 58 | 84 | 0.0 | 0.0 | 0.00 | 0.00 | 0.00 | 63 | |
| 20260501214300 | 58 | 84 | 0.0 | 5.0 | 0.00 | 0.00 | 0.00 | 63 | |
| 20260501213754 | 59 | 84 | 0.0 | 5.0 | 0.00 | 0.00 | 0.00 | 62 | |
| 20260501213249 | 59 | 84 | 0.0 | 0.0 | 0.00 | 0.00 | 0.00 | 61 | |
| 20260501212736 | 60 | 84 | 0.0 | 0.0 | 0.00 | 0.00 | 0.00 | 60 | |
| 20260501212236 | 60 | 84 | 0.0 | 0.0 | 0.00 | 0.00 | 0.00 | 59 | |
| 20260501211729 | 61 | 84 | 0.0 | 0.0 | 0.00 | 0.00 | 0.00 | 58 | |
| 20260501211224 | 61 | 84 | 0.0 | 5.0 | 0.00 | 0.00 | 0.00 | 58 | |
| 20260501210949 | 62 | 84 | 0.0 | 5.0 | 0.00 | 0.00 | 0.00 | 57 | |
| 20260501210210 | 62 | 84 | 0.0 | 5.0 | 0.00 | 0.00 | 0.00 | 57 | |
| 20260501205703 | 62 | 84 | 0.0 | 1.0 | 0.00 | 0.00 | 0.00 | 56 | |
| 20260501205430 | 62 | 84 | 0.0 | 5.0 | 0.00 | 0.00 | 0.00 | 55 | |
| 20260501204651 | 63 | 84 | 0.0 | 5.0 | 0.00 | 0.00 | 0.00 | 55 | |
| 20260501204146 | 63 | 84 | 0.0 | 2.0 | 0.00 | 0.00 | 0.00 | 54 | |
| 20260501203636 | 64 | 84 | 0.0 | 3.0 | 0.00 | 0.00 | 0.00 | 54 | |
| 20260501203134 | 64 | 84 | 0.0 | 5.0 | 0.00 | 0.00 | 0.00 | 53 | |
| 20260501202627 | 64 | 84 | 0.0 | 5.0 | 0.00 | 0.00 | 0.00 | 53 | |
| 20260501202123 | 64 | 84 | 1.0 | 7.0 | 0.00 | 0.00 | 0.00 | 52 | |
| 20260501201615 | 65 | 84 | 0.0 | 7.0 | 0.00 | 0.00 | 0.00 | 52 | |
| 20260501201336 | 65 | 105 | 1.0 | 7.0 | 0.00 | 0.00 | 0.00 | 52 | |
| 20260501200604 | 65 | 105 | 1.0 | 9.0 | 0.00 | 0.00 | 0.00 | 52 | |
| 20260501200058 | 65 | 105 | 1.0 | 9.0 | 0.00 | 0.00 | 0.00 | 51 | |
| 20260501195551 | 65 | 119 | 0.0 | 4.0 | 0.00 | 0.00 | 0.00 | 51 | |
| 20260501195045 | 65 | 119 | 0.0 | 4.0 | 0.00 | 0.00 | 0.00 | 50 | |
| 20260501194536 | 66 | 119 | 0.0 | 4.0 | 0.00 | 0.00 | 0.00 | 50 | |
| 20260501194033 | 66 | 120 | 0.0 | 4.0 | 0.00 | 0.00 | 0.00 | 49 | |
| 20260501193528 | 66 | 120 | 0.0 | 4.0 | 0.00 | 0.00 | 0.00 | 49 | |
| 20260501193022 | 67 | 123 | 0.0 | 4.0 | 0.00 | 0.00 | 0.00 | 48 | |
| 20260501192746 | 67 | 123 | 0.0 | 5.0 | 0.00 | 0.00 | 0.00 | 47 | |
| 20260501192240 | 67 | 123 | 1.0 | 5.0 | 0.00 | 0.00 | 0.00 | 47 | |
| 20260501191505 | 68 | 124 | 1.0 | 7.0 | 0.00 | 0.00 | 0.00 | 46 | |
| 20260501190953 | 68 | 125 | 1.0 | 7.0 | 0.00 | 0.00 | 0.00 | 46 | |
| 20260501190454 | 69 | 125 | 1.0 | 7.0 | 0.00 | 0.00 | 0.00 | 45 | |
| 20260501185945 | 69 | 125 | 1.0 | 7.0 | 0.00 | 0.00 | 0.00 | 45 | |
| 20260501185439 | 69 | 116 | 0.0 | 7.0 | 0.00 | 0.00 | 0.00 | 44 | |
| 20260501184933 | 70 | 116 | 0.0 | 4.0 | 0.00 | 0.00 | 0.00 | 43 | |
| 20260501184427 | 70 | 123 | 1.0 | 7.0 | 0.00 | 0.00 | 0.00 | 43 | |
| 20260501184153 | 71 | 123 | 1.0 | 9.0 | 0.00 | 0.00 | 0.00 | 42 | |
| 20260501183417 | 71 | 127 | 1.0 | 9.0 | 0.00 | 0.00 | 0.00 | 42 | |
| 20260501182909 | 71 | 128 | 1.0 | 8.0 | 0.00 | 0.00 | 0.00 | 42 | |
| 20260501182403 | 72 | 128 | 1.0 | 8.0 | 0.00 | 0.00 | 0.00 | 41 | |
| 20260501181857 | 72 | 138 | 2.0 | 7.0 | 0.00 | 0.00 | 0.00 | 41 |